Tracking 34171 objects as of 21-May-2026
HD Live streaming from Space Station
objects crossing your sky now

KUIPER-00421

Track KUIPER-00421 now!
10-day predictions
KUIPER-00421 is classified as:


NORAD ID: 68933
Int'l Code: 2026-098Q
Perigee: 464.4 km
Apogee: 476.7 km
Inclination: 51.9 °
Period: 93.9 minutes
Semi major axis: 6841 km
RCS: Unknown
Launch date: April 30, 2026
Source: United States (US)
Launch site: AIR FORCE EASTERN TEST RANGE (AFETR)
Your satellite tracking list
Your tracking list is empty




NASA's NSSDC Master Catalog

Two Line Element Set (TLE):
1 68933U 26098Q   26140.88885084 -.00002186  00000-0 -53667-4 0  9996
2 68933  51.8769 199.3041 0009056  37.3063 322.8550 15.34160632  3151
Source of the keplerian elements: AFSPC